Date String (YYYY-MM-DD hh:mm:ss) UTC,Instrument flags,Ambient pressure (hPa),Sample flow (lpm),Bypass flow (lpm),Sample temperature (°C),Ambient temperature (°C),ASC tube jacket temperature (°C),LED temperature (°C),Box temperature (°C),Sample RH (%),Span deviation,Mass concentration (μg/m³),Mass concentration (μg/m³),Mass concentration (μg/m³)
DateTimeUTC,F1_M11,P_M11,Q1_M11,Q2_M11,T1_M11,T2_M11,T3_M11,T4_M11,T5_M11,U1_M11,ZSPAN_M11,X0_M11,X2_M11,X1_M11
2022-03-29 23:00:00,,0811.4,5.02,0.00,27.2,26.2,00.0,36.2,29.0,18.3,0000.0,0005.79,0002.01,0001.47
2022-03-29 23:01:00,,0811.4,4.99,0.00,27.2,26.2,00.0,36.2,29.0,18.3,0000.0,0007.07,0002.02,0001.47
2022-03-29 23:02:00,,0811.4,5.00,0.00,27.2,26.1,00.0,36.2,29.0,18.0,0000.0,0007.22,0002.04,0001.46
2022-03-29 23:03:00,,0811.4,5.00,0.00,27.2,26.2,00.0,36.2,29.0,18.1,0000.0,0007.43,0002.04,0001.45
2022-03-29 23:04:00,,0811.4,5.01,0.00,27.2,26.2,00.0,36.2,29.0,18.2,0000.0,0007.47,0002.06,0001.45
2022-03-29 23:05:00,,0811.5,4.98,0.00,27.2,26.1,00.0,36.2,28.9,18.0,0000.0,0007.49,0002.07,0001.45
2022-03-29 23:06:00,,0811.5,5.02,0.00,27.2,26.1,00.0,36.2,29.0,18.1,0000.0,0007.49,0002.07,0001.43
2022-03-29 23:07:00,,0811.5,4.99,0.00,27.2,26.1,00.0,36.2,28.9,18.0,0000.0,0007.55,0002.09,0001.42
2022-03-29 23:08:00,,0811.5,4.99,0.00,27.1,26.1,00.0,36.2,28.9,17.7,0000.0,0007.16,0002.01,0001.40
2022-03-29 23:09:00,,0811.5,5.01,0.00,27.1,26.1,00.0,36.2,28.8,17.5,0000.0,0005.82,0002.00,0001.39
2022-03-29 23:10:00,,0811.5,4.99,0.00,27.1,26.1,00.0,36.2,28.8,17.6,0000.0,0005.70,0001.97,0001.36
2022-03-29 23:11:00,,0811.5,4.99,0.00,27.1,26.0,00.0,36.1,28.8,17.5,0000.0,0006.20,0001.92,0001.36
2022-03-29 23:12:00,,0811.7,5.02,0.00,27.0,26.0,00.0,36.1,28.7,17.4,0000.0,0005.61,0001.90,0001.34
2022-03-29 23:13:00,,0811.7,5.00,0.00,27.0,26.0,00.0,36.1,28.7,17.5,0000.0,0005.56,0001.90,0001.32
2022-03-29 23:14:00,,0811.7,5.00,0.00,27.0,25.9,00.0,36.1,28.7,17.4,0000.0,0006.29,0001.93,0001.31
2022-03-29 23:15:00,,0811.7,4.99,0.00,26.9,25.9,00.0,36.1,28.7,17.4,0000.0,0006.56,0001.90,0001.30
2022-03-29 23:16:00,,0811.9,5.01,0.00,26.9,25.9,00.0,36.1,28.7,17.6,0000.0,0007.51,0001.91,0001.30
2022-03-29 23:17:00,,0811.9,4.99,0.00,26.9,25.9,00.0,36.1,28.6,17.8,0000.0,0007.69,0001.88,0001.29
2022-03-29 23:18:00,,0811.9,5.00,0.00,26.9,25.9,00.0,36.0,28.6,17.9,0000.0,0007.76,0001.84,0001.28
2022-03-29 23:19:00,,0811.9,5.01,0.00,26.9,25.9,00.0,36.0,28.6,17.8,0000.0,0007.80,0001.85,0001.26
2022-03-29 23:20:00,,0812.0,4.99,0.00,26.9,25.8,00.0,36.0,28.5,17.9,0000.0,0007.82,0001.88,0001.24
2022-03-29 23:21:00,,0811.9,4.98,0.00,26.8,25.8,00.0,36.0,28.5,17.8,0000.0,0007.88,0001.86,0001.21
2022-03-29 23:22:00,,0811.9,5.01,0.00,26.8,25.8,00.0,36.0,28.5,17.7,0000.0,0007.71,0001.83,0001.16
2022-03-29 23:23:00,,0812.0,5.01,0.00,26.8,25.8,00.0,36.0,28.5,17.7,0000.0,0006.72,0001.75,0001.11
2022-03-29 23:24:00,,0811.9,4.99,0.00,26.8,25.8,00.0,35.9,28.5,17.7,0000.0,0006.80,0001.69,0001.07
2022-03-29 23:25:00,,0811.9,4.99,0.00,26.8,25.8,00.0,35.9,28.5,17.2,0000.0,0006.14,0001.57,0001.02
2022-03-29 23:26:00,,0812.0,5.02,0.00,26.7,25.7,00.0,35.9,28.4,17.2,0000.0,0005.52,0001.49,0000.96
2022-03-29 23:27:00,,0811.9,4.99,0.00,26.7,25.7,00.0,35.9,28.4,17.2,0000.0,0004.48,0001.48,0000.92
2022-03-29 23:28:00,,0812.0,4.99,0.00,26.7,25.7,00.0,35.9,28.4,17.3,0000.0,0004.04,0001.43,0000.86
2022-03-29 23:29:00,,0812.0,5.02,0.00,26.7,25.6,00.0,35.9,28.3,17.4,0000.0,0003.67,0001.39,0000.81
2022-03-29 23:30:00,,0812.0,4.99,0.00,26.6,25.6,00.0,35.8,28.3,17.6,0000.0,0004.78,0001.36,0000.76
2022-03-29 23:31:00,,0812.1,4.99,0.00,26.6,25.6,00.0,35.8,28.3,17.6,0000.0,0004.87,0001.30,0000.72
2022-03-29 23:32:00,,0812.1,5.01,0.00,26.6,25.6,00.0,35.8,28.3,17.6,0000.0,0004.65,0001.25,0000.69
2022-03-29 23:33:00,,0812.1,5.00,0.00,26.6,25.6,00.0,35.8,28.4,17.6,0000.0,0003.94,0001.21,0000.67
2022-03-29 23:34:00,,0812.2,5.00,0.00,26.6,25.6,00.0,35.8,28.3,17.4,0000.0,0003.90,0001.18,0000.65
2022-03-29 23:35:00,,0812.2,5.01,0.00,26.6,25.6,00.0,35.8,28.3,17.4,0000.0,0004.32,0001.17,0000.64
2022-03-29 23:36:00,,0812.2,4.99,0.00,26.6,25.6,00.0,35.7,28.3,17.5,0000.0,0004.93,0001.20,0000.63
2022-03-29 23:37:00,,0812.2,4.99,0.00,26.6,25.6,00.0,35.7,28.3,17.4,0000.0,0005.08,0001.23,0000.63
2022-03-29 23:38:00,,0812.3,5.01,0.00,26.6,25.5,00.0,35.7,28.3,17.1,0000.0,0005.40,0001.16,0000.62
2022-03-29 23:39:00,,0812.3,4.99,0.00,26.6,25.5,00.0,35.7,28.3,17.2,0000.0,0007.74,0001.20,0000.63
2022-03-29 23:40:00,,0812.3,5.00,0.00,26.6,25.5,00.0,35.7,28.3,17.2,0000.0,0007.94,0001.22,0000.64
2022-03-29 23:41:00,,0812.4,5.00,0.00,26.5,25.4,00.0,35.7,28.3,16.9,0000.0,0007.79,0001.23,0000.66
2022-03-29 23:42:00,,0812.4,5.01,0.00,26.5,25.4,00.0,35.7,28.2,17.0,0000.0,0007.70,0001.19,0000.67
2022-03-29 23:43:00,,0812.4,5.00,0.00,26.5,25.4,00.0,35.7,28.2,17.4,0000.0,0007.68,0001.18,0000.67
2022-03-29 23:44:00,,0812.4,4.99,0.00,26.5,25.4,00.0,35.6,28.2,17.5,0000.0,0007.79,0001.20,0000.68
2022-03-29 23:45:00,,0812.5,4.99,0.00,26.5,25.4,00.0,35.6,28.2,17.5,0000.0,0008.26,0001.23,0000.67
2022-03-29 23:46:00,,0812.4,5.00,0.00,26.5,25.4,00.0,35.6,28.2,17.6,0000.0,0008.29,0001.26,0000.69
2022-03-29 23:47:00,,0812.5,5.01,0.00,26.5,25.5,00.0,35.6,28.2,17.5,0000.0,0008.05,0001.33,0000.70
2022-03-29 23:48:00,,0812.4,5.00,0.00,26.5,25.4,00.0,35.6,28.2,17.5,0000.0,0008.79,0001.37,0000.72
2022-03-29 23:49:00,,0812.5,4.99,0.00,26.4,25.4,00.0,35.6,28.2,17.4,0000.0,0009.28,0001.39,0000.72
2022-03-29 23:50:00,,0812.6,5.00,0.00,26.4,25.4,00.0,35.6,28.2,17.5,0000.0,0008.52,0001.36,0000.71
2022-03-29 23:51:00,,0812.6,5.01,0.00,26.4,25.4,00.0,35.6,28.2,17.5,0000.0,0008.32,0001.38,0000.70
2022-03-29 23:52:00,,0812.6,5.00,0.00,26.4,25.4,00.0,35.5,28.2,17.4,0000.0,0007.97,0001.41,0000.70
2022-03-29 23:53:00,,0812.6,5.01,0.00,26.4,25.4,00.0,35.5,28.2,17.1,0000.0,0007.99,0001.43,0000.69
2022-03-29 23:54:00,,0812.6,4.99,0.00,26.4,25.4,00.0,35.5,28.1,16.9,0000.0,0008.04,0001.45,0000.68
2022-03-29 23:55:00,,0812.6,5.00,0.00,26.4,25.4,00.0,35.5,28.1,17.0,0000.0,0008.06,0001.46,0000.67
2022-03-29 23:56:00,,0812.7,5.00,0.00,26.4,25.3,00.0,35.5,28.1,17.0,0000.0,0007.75,0001.47,0000.67
2022-03-29 23:57:00,,0812.8,5.01,0.00,26.4,25.3,00.0,35.5,28.1,16.9,0000.0,0008.50,0001.41,0000.64
2022-03-29 23:58:00,,0812.8,5.00,0.00,26.4,25.3,00.0,35.5,28.1,17.0,0000.0,0009.02,0001.33,0000.60
2022-03-29 23:59:00,,0812.8,5.00,0.00,26.3,25.3,00.0,35.5,28.1,16.8,0000.0,0008.17,0001.23,0000.57
